Wind_Speed
63 63 64 65 68 69 71 74 76 79 80 81 85 86 90 88 73 55 48 41 36 36 34 37 39 44 44 44 40 39 41 40 40 36 36 38 41 38 35 35 33 32 31 33 33 32 33 30 28 34 37 40 42 43
66 67 67 69 71 74 75 78 79 81 82 85 86 91 90 83 60 48 37 33 33 33 31 34 38 38 38 37 38 37 39 40 34 35 36 41 38 38 31 34 32 35 33 34 34 34 36 33 33 34 42 45 43 45
70 71 73 74 77 78 79 80 82 83 85 87 91 92 93 71 51 36 29 28 30 32 31 31 28 28 29 30 33 35 34 38 38 35 37 38 35 36 36 36 33 36 35 37 35 36 35 37 36 38 40 46 50 48
74 75 77 79 81 83 83 82 84 90 92 94 95 93 81 60 39 28 25 25 29 30 27 28 24 23 22 24 27 29 31 36 36 36 36 36 37 36 39 37 35 36 35 37 40 39 35 37 43 39 39 42 45 48
79 79 81 84 85 86 85 87 92 94 98 95 94 88 69 46 30 24 24 25 27 28 27 23 22 25 24 25 25 26 28 29 28 29 31 35 38 38 40 35 35 34 30 34 39 37 36 41 40 42 46 46 44 51
85 85 86 86 87 87 88 92 95 99 92 97 94 74 53 34 25 24 23 24 27 30 24 20 22 23 24 24 24 25 26 28 29 31 33 34 34 34 36 33 34 30 31 36 37 38 41 39 45 50 50 45 40 31
88 89 90 91 92 91 92 95 97 93 97 95 78 58 40 28 22 24 23 24 27 28 26 20 22 23 19 20 23 25 27 30 31 31 31 31 30 29 29 32 31 31 33 35 38 40 40 45 51 48 44 32 22 25
93 92 94 93 94 95 96 95 95 93 95 80 63 44 31 26 27 26 24 24 28 27 24 20 22 24 21 20 22 23 25 28 31 31 32 31 28 29 31 30 28 30 31 36 39 36 43 51 49 44 32 23 26 55
98 97 97 99 99 96 98 96 94 92 79 63 47 34 26 26 29 28 24 25 28 30 26 22 19 21 22 20 19 22 24 27 28 29 31 29 29 29 27 26 27 27 31 33 33 39 45 45 38 37 34 17 40 56
96 95 96 98 97 93 94 95 87 76 62 48 35 27 25 28 27 27 24 27 29 32 26 25 22 23 22 21 22 24 23 25 27 28 26 27 27 24 23 24 24 26 25 29 33 37 40 43 35 28 26 14 38 50
90 89 89 90 91 92 91 81 73 63 49 37 29 25 29 30 30 28 25 28 31 33 29 25 25 23 22 24 26 26 25 28 28 25 24 24 25 23 22 22 24 20 22 27 31 31 34 32 28 20 21 37 39 41
88 88 87 90 89 80 74 69 60 47 37 30 25 27 32 34 31 27 26 29 31 32 31 29 26 23 25 29 28 27 26 23 20 19 22 20 18 20 19 23 16 15 20 24 27 26 28 19 16 14 17 21 25 27
79 79 79 75 70 68 64 53 43 35 29 25 24 30 33 32 29 27 26 29 32 32 31 29 27 28 27 27 26 24 20 17 20 20 16 14 17 18 20 14 12 12 17 21 22 22 21 18 10 18 24 24 34 34
71 67 64 65 64 57 46 39 34 28 24 22 27 32 35 31 28 26 27 30 32 31 30 29 28 26 24 25 25 18 16 14 15 14 15 15 14 14 15 12 12 12 13 16 15 17 18 17 16 11 8 8 11 10
60 60 60 59 49 42 35 30 29 25 24 27 31 35 35 31 29 27 29 31 32 30 29 27 24 24 23 23 21 16 17 19 18 16 8 14 11 10 12 12 12 12 12 13 14 15 16 18 21 19 17 16 17 17
56 56 53 44 38 33 29 27 26 24 25 30 34 35 34 31 28 27 29 30 30 29 27 24 24 22 22 21 18 17 22 21 21 18 20 20 17 10 12 12 11 9 11 12 13 15 19 19 18 20 17 16 16 15
53 48 40 35 30 27 25 25 25 25 29 33 36 36 33 32 29 28 29 31 32 29 25 23 22 22 20 17 19 20 19 20 20 19 19 24 20 15 17 16 13 8 9 10 12 15 16 17 19 19 18 18 15 14
42 37 32 28 26 23 22 24 25 26 31 33 36 36 35 35 32 30 32 31 28 26 23 22 22 20 17 19 20 18 20 20 19 19 25 27 25 24 20 18 13 10 9 11 16 15 17 20 15 15 18 15 14 13
33 29 27 24 21 21 22 23 25 27 29 37 38 39 38 37 33 31 32 31 28 24 22 22 21 19 17 23 27 24 24 21 20 18 19 26 27 25 24 24 13 13 12 12 16 18 16 16 17 18 20 16 11 14
26 24 23 21 19 20 20 20 21 23 29 39 38 40 39 38 34 33 31 30 29 26 25 23 22 19 22 27 27 26 27 23 18 16 25 31 30 27 24 23 22 18 17 18 22 24 21 22 21 24 20 20 22 18
21 20 19 18 18 18 18 19 21 24 29 37 39 42 41 38 37 36 33 31 29 29 27 25 21 21 25 29 27 26 25 24 22 22 25 31 32 28 27 34 30 24 21 25 30 31 29 27 25 27 24 23 20 18
17 16 16 15 15 16 17 20 23 25 31 37 39 41 42 40 38 36 36 37 35 31 27 25 26 26 27 31 30 28 26 23 23 24 24 27 35 35 35 34 26 28 31 30 34 35 32 34 34 32 31 28 25 26
15 14 14 14 15 16 17 19 22 25 30 35 41 45 45 44 41 39 38 37 37 35 33 32 29 30 28 30 33 28 27 26 26 25 22 24 31 37 37 36 36 28 41 36 33 33 36 35 33 34 34 34 32 31
12 11 12 13 13 14 15 16 19 22 24 27 31 36 41 43 45 44 43 42 41 41 38 35 33 33 29 29 31 30 29 29 27 25 24 23 25 27 31 33 36 41 40 35 35 35 36 40 42 42 44 43 40 37
8 8 9 10 10 11 12 12 13 15 16 19 21 25 28 28 28 30 34 36 38 38 37 36 35 34 30 28 30 28 27 26 26 25 25 25 26 31 34 36 38 40 41 39 36 38 40 44 48 48 44 48 43 55
9 10 10 10 10 11 12 13 13 13 13 14 15 18 22 25 25 24 23 22 23 25 26 28 32 32 28 28 27 26 25 25 26 28 31 32 33 35 37 40 46 45 45 48 50 52 55 56 57 58 61 62 65 66
13 14 15 15 15 16 16 15 16 18 19 19 21 22 22 21 20 20 20 20 20 23 28 29 29 27 26 26 26 25 25 26 27 29 32 34 34 36 40 43 48 52 55 58 60 63 66 69 70 69 69 70 69 69
17 19 20 21 22 23 23 24 24 24 24 24 25 25 24 23 23 23 24 26 24 23 17 25 29 30 28 26 25 25 27 28 30 34 37 40 43 46 49 52 55 59 64 68 68 62 58 56 56 51 49 51 53 57
23 24 24 24 25 26 26 25 25 26 27 28 28 29 30 30 29 27 21 18 19 21 24 22 22 22 24 26 28 30 33 36 38 41 45 49 51 55 59 61 61 59 56 54 53 52 51 51 50 49 46 45 50 56
25 25 26 26 26 26 25 24 25 26 27 22 19 20 20 22 25 27 25 22 19 19 21 22 24 25 27 31 35 37 41 43 46 50 53 55 52 50 49 47 46 47 50 51 51 51 51 51 51 51 51 51 50 48
26 26 26 26 26 25 24 24 24 23 23 20 16 13 13 11 9 10 14 16 18 21 23 26 29 32 35 39 42 44 46 45 44 41 40 40 41 44 46 48 50 51 51 53 55 55 56 58 58 58 58 58 57 57
27 28 27 26 25 24 23 21 19 18 17 16 15 12 10 11 13 16 19 20 24 25 28 31 35 36 37 37 37 35 34 35 37 39 40 42 46 49 50 51 53 54 55 55 55 55 53 50 51 53 53 52 53 55
27 25 22 19 17 15 14 14 15 16 16 15 15 16 17 18 20 21 21 21 21 23 24 26 28 29 30 30 32 34 33 35 39 42 46 50 52 54 55 55 56 53 50 49 47 46 47 48 47 45 48 50 49 48
Wind_Direction
295 295 296 298 299 302 304 306 309 312 314 314 314 316 318 315 313 304 296 287 271 260 255 249 252 252 251 247 239 234 236 234 234 238 243 251 254 258 263 261 261 263 264 268 269 270 273 277 288 262 253 246 240 236
294 295 296 298 300 302 305 307 310 311 313 312 313 316 318 315 306 294 284 270 256 252 247 251 256 256 249 238 231 231 235 237 236 242 246 248 255 256 258 259 261 258 261 270 265 267 270 272 285 279 257 249 243 243
294 295 296 298 299 301 304 307 309 311 312 311 316 314 317 311 298 281 268 254 247 244 243 248 242 242 238 232 230 232 234 235 237 241 247 251 250 251 256 265 265 262 265 268 265 267 268 274 284 276 263 258 249 241
292 294 296 297 298 301 304 307 309 309 312 315 315 316 314 305 286 262 246 242 243 239 235 232 235 236 231 231 234 235 233 237 240 244 248 250 251 256 261 267 267 264 264 263 264 267 269 278 286 276 264 261 259 256
292 294 295 296 298 301 305 306 306 311 313 316 314 315 310 297 271 244 233 237 237 231 220 227 229 231 231 236 240 238 238 242 243 246 248 249 251 257 263 264 264 266 258 264 268 272 279 288 281 278 276 272 266 260
291 291 294 296 299 300 303 304 308 309 313 313 314 311 302 283 252 226 223 228 229 216 211 220 227 233 227 229 232 238 243 247 250 250 251 252 254 255 262 266 266 261 267 271 277 286 293 287 286 287 287 283 269 260
291 293 293 295 297 301 301 304 306 309 311 312 309 305 291 263 230 216 215 223 219 210 212 219 222 221 225 233 238 242 245 248 251 251 253 253 252 252 260 262 258 261 271 277 288 294 294 291 293 293 293 284 236 161
288 291 292 294 297 298 301 303 306 307 309 309 304 296 276 242 220 215 213 219 211 208 214 221 220 223 227 237 242 246 252 250 248 250 251 250 253 258 257 252 255 267 275 287 291 295 294 298 305 303 299 284 203 176
288 290 292 294 294 299 300 302 305 307 307 302 297 283 256 229 209 209 212 212 212 211 213 206 219 228 230 246 256 262 264 256 247 249 250 253 254 253 249 251 260 269 284 287 294 297 302 306 309 303 299 275 212 204
285 286 288 290 294 296 300 302 304 303 301 295 284 263 233 219 212 211 214 212 213 210 210 203 227 236 234 246 264 272 261 257 252 257 251 246 253 239 247 254 263 282 285 289 298 306 312 311 313 296 262 241 213 232
285 287 289 291 293 298 299 300 300 298 293 283 266 241 221 211 211 211 213 216 215 215 209 212 229 233 243 253 263 266 261 259 255 247 244 249 234 231 251 256 277 278 285 297 308 317 320 315 315 302 260 248 242 243
285 287 288 291 295 296 297 297 294 290 281 270 250 222 213 209 211 213 217 217 219 219 216 220 228 237 245 256 265 266 265 262 243 237 242 237 227 242 252 270 267 278 292 308 314 327 326 326 288 267 266 268 276 294
287 289 291 293 294 294 294 290 285 277 266 253 233 212 209 209 211 216 218 216 219 224 224 224 232 241 251 260 266 265 254 233 239 237 222 224 237 254 264 252 254 279 299 313 316 328 341 336 314 250 247 261 293 283
288 291 292 293 294 293 288 282 274 264 253 239 217 209 207 207 213 218 218 216 221 224 226 231 239 247 250 259 263 254 245 231 210 203 217 228 239 244 240 232 247 284 310 314 314 327 351 355 352 350 356 320 291 298
290 292 293 295 292 286 280 270 261 254 238 224 213 208 205 207 211 216 217 217 222 224 227 235 242 247 252 253 253 239 203 195 184 203 189 224 234 228 231 238 261 287 314 321 323 341 2 6 9 5 5 15 26 33
292 294 295 291 286 279 271 261 253 246 227 215 211 207 204 209 212 216 217 217 220 224 227 235 243 246 253 246 234 201 194 195 189 208 218 238 221 201 234 235 252 286 315 335 345 1 10 14 6 10 14 15 20 25
295 294 291 286 278 269 262 255 248 241 219 215 205 206 207 208 208 212 214 214 218 224 230 238 241 241 239 232 205 193 193 199 210 218 223 224 217 217 225 238 242 265 278 309 334 337 350 9 16 8 5 13 15 13
290 287 283 277 270 265 257 250 239 230 221 209 200 205 207 208 207 209 215 215 219 222 224 231 233 231 227 205 195 191 199 210 221 225 218 219 223 222 221 231 234 253 297 295 319 329 333 333 348 5 3 2 356 354
281 280 277 270 263 256 249 237 231 225 216 203 203 204 207 207 207 211 217 220 217 216 224 228 225 222 213 200 197 203 207 220 230 232 235 223 227 238 240 247 263 255 249 290 290 310 316 321 319 330 333 330 353 356
275 272 266 257 250 243 238 232 224 216 208 204 202 202 205 207 207 211 215 220 218 219 218 223 219 216 214 204 204 208 209 220 236 236 220 223 224 237 235 246 254 250 268 279 283 291 306 298 296 307 307 311 314 317
267 261 252 245 239 235 229 223 215 211 206 204 204 205 206 209 212 212 213 217 219 219 221 223 220 218 217 210 208 210 212 224 233 239 242 237 227 230 241 256 256 268 278 282 282 282 288 294 298 295 297 302 306 306
255 248 241 235 231 228 225 220 214 211 206 207 207 208 211 212 214 216 219 223 224 222 221 220 220 221 218 218 217 216 217 228 233 239 244 234 225 233 241 250 242 264 274 276 283 285 286 291 292 293 287 293 292 294
243 239 238 234 230 226 223 218 216 215 213 211 211 210 213 216 220 221 222 223 226 227 227 229 224 222 220 221 221 222 227 233 233 245 254 250 243 237 240 241 249 259 275 277 277 279 285 288 288 287 287 285 285 289
239 241 237 232 228 223 219 217 216 217 218 217 217 218 221 224 226 226 228 231 230 226 225 223 221 219 220 224 222 223 232 239 240 242 247 249 250 252 251 254 257 260 265 265 268 274 281 279 285 281 283 282 282 280
216 208 204 199 198 199 199 199 199 203 208 211 212 212 211 211 214 217 221 223 224 224 222 222 220 216 220 223 221 227 237 245 249 250 251 251 252 253 255 256 257 258 264 267 265 265 266 269 274 279 276 277 273 264
175 170 168 167 162 165 165 165 167 167 166 165 165 170 177 185 192 196 199 202 203 204 207 211 213 213 219 221 223 232 241 249 254 254 256 255 255 257 258 261 267 272 272 272 273 273 272 272 272 270 269 268 268 270
154 152 150 146 147 145 142 140 142 142 145 149 152 152 153 158 162 163 162 163 170 180 194 201 207 214 216 218 223 233 243 251 258 262 263 264 267 267 268 269 271 272 275 278 279 279 278 278 278 275 269 265 263 264
144 143 141 137 131 127 126 126 128 128 127 126 127 126 132 137 141 146 155 159 172 179 188 215 215 211 214 225 235 244 252 257 257 259 264 267 267 267 268 270 272 273 274 276 278 278 278 278 278 277 273 270 266 259
139 140 139 136 132 130 131 132 130 126 128 136 145 146 147 145 148 150 163 190 197 192 202 219 234 233 235 243 251 257 259 260 264 267 269 271 272 273 275 277 279 280 279 279 279 279 278 278 277 274 273 271 267 265
142 141 138 134 131 131 130 130 128 130 134 143 143 146 156 174 176 171 174 187 197 208 220 230 241 250 255 258 259 263 267 270 272 274 277 280 281 280 279 279 279 279 280 280 279 277 276 275 275 275 274 271 267 266
145 140 135 132 131 133 134 134 137 140 145 152 162 173 195 208 203 201 214 221 232 240 246 250 254 261 267 270 273 276 279 281 282 281 281 280 283 283 283 281 280 280 279 277 277 276 276 275 272 268 267 269 268 267
144 141 142 148 150 150 148 146 149 152 157 164 174 189 219 253 257 251 247 251 256 259 264 268 271 272 275 278 280 281 284 286 285 283 282 283 287 287 288 288 286 284 285 285 283 282 279 274 271 272 273 270 266 262
149 149 149 152 157 159 160 166 179 188 196 210 222 235 243 254 265 273 277 276 271 270 273 278 281 282 283 284 286 289 292 295 295 295 295 296 296 295 294 293 294 294 291 288 285 283 279 279 279 278 274 272 272 272
Height
10792 10788 10783 10779 10773 10768 10762 10755 10749 10741 10733 10725 10717 10707 10698 10689 10680 10674 10672 10672 10672 10671 10675 10676 10679 10683 10686 10688 10693 10697 10697 10705 10710 10718 10721 10723 10727 10731 10734 10735 10737 10739 10740 10739 10738 10738 10739 10738 10738 10737 10738 10739 10743 10749
10776 10772 10767 10762 10756 10750 10745 10739 10732 10724 10717 10707 10697 10687 10677 10667 10660 10655 10654 10656 10657 10658 10663 10665 10667 10669 10672 10677 10682 10686 10689 10694 10705 10708 10710 10712 10718 10719 10723 10724 10729 10729 10730 10729 10728 10729 10728 10730 10728 10728 10727 10728 10735 10740
10759 10755 10750 10744 10738 10733 10727 10720 10713 10705 10697 10687 10679 10666 10656 10646 10639 10637 10639 10643 10645 10648 10652 10655 10657 10659 10663 10668 10672 10676 10683 10685 10690 10696 10698 10701 10705 10708 10712 10714 10718 10718 10720 10717 10717 10718 10720 10718 10719 10717 10715 10715 10718 10728
10741 10737 10732 10726 10719 10714 10708 10702 10695 10686 10677 10668 10657 10646 10634 10625 10621 10622 10627 10632 10635 10639 10643 10645 10649 10654 10657 10660 10663 10668 10674 10676 10683 10687 10689 10692 10694 10698 10700 10703 10707 10708 10708 10705 10703 10707 10711 10711 10706 10703 10701 10701 10706 10714
10722 10718 10713 10707 10701 10695 10689 10682 10675 10667 10658 10648 10635 10626 10616 10608 10607 10611 10616 10622 10626 10630 10634 10638 10643 10646 10651 10654 10657 10662 10664 10667 10671 10676 10680 10681 10684 10689 10689 10693 10695 10695 10696 10694 10691 10695 10699 10698 10691 10686 10683 10688 10696 10694
10703 10698 10693 10687 10681 10674 10669 10663 10656 10648 10637 10627 10618 10608 10600 10595 10597 10601 10607 10613 10617 10621 10626 10631 10636 10641 10643 10647 10651 10655 10658 10660 10663 10667 10670 10672 10675 10679 10680 10682 10682 10683 10683 10680 10680 10682 10685 10679 10671 10664 10663 10665 10666 10670
10679 10675 10670 10666 10660 10655 10649 10643 10635 10627 10620 10610 10598 10592 10586 10584 10588 10593 10600 10605 10609 10614 10619 10625 10629 10635 10639 10641 10644 10647 10650 10652 10654 10656 10658 10662 10666 10669 10671 10670 10672 10673 10671 10669 10669 10669 10665 10657 10650 10648 10646 10646 10643 10644
10658 10654 10649 10645 10639 10634 10628 10622 10615 10607 10599 10589 10582 10577 10574 10575 10580 10586 10592 10597 10602 10608 10613 10619 10624 10629 10630 10633 10637 10640 10642 10644 10646 10648 10651 10654 10659 10660 10662 10662 10663 10663 10662 10659 10657 10656 10650 10638 10634 10630 10627 10625 10626 10623
10635 10631 10627 10622 10617 10612 10606 10600 10594 10587 10579 10571 10567 10564 10564 10568 10573 10578 10584 10590 10596 10601 10606 10612 10617 10620 10624 10627 10630 10632 10634 10635 10638 10640 10643 10648 10650 10649 10652 10654 10655 10655 10654 10649 10647 10643 10636 10627 10621 10613 10608 10609 10611 10610
10612 10608 10605 10600 10596 10590 10585 10578 10572 10565 10561 10555 10553 10553 10556 10561 10568 10573 10578 10583 10589 10593 10599 10606 10608 10611 10618 10622 10624 10624 10626 10627 10629 10631 10636 10638 10640 10644 10645 10646 10647 10647 10644 10641 10638 10634 10624 10612 10605 10599 10602 10601 10604 10604
10589 10586 10583 10579 10573 10569 10563 10556 10551 10546 10543 10541 10541 10543 10548 10554 10560 10566 10571 10577 10583 10588 10593 10598 10600 10607 10611 10614 10616 10615 10617 10618 10619 10624 10627 10630 10632 10636 10638 10639 10640 10639 10636 10633 10630 10625 10618 10605 10596 10592 10593 10597 10599 10600
10565 10564 10560 10556 10553 10546 10541 10535 10531 10528 10528 10528 10530 10535 10541 10547 10553 10560 10566 10571 10577 10581 10586 10590 10595 10600 10603 10605 10606 10607 10608 10610 10614 10618 10620 10623 10630 10631 10632 10632 10633 10633 10630 10626 10622 10619 10611 10605 10597 10591 10587 10586 10588 10585
10544 10541 10538 10534 10530 10525 10520 10516 10513 10513 10515 10517 10521 10527 10534 10541 10547 10554 10560 10565 10570 10575 10580 10584 10588 10591 10595 10596 10597 10598 10601 10606 10610 10612 10617 10621 10622 10625 10626 10626 10627 10627 10624 10620 10616 10614 10610 10603 10600 10597 10592 10588 10586 10586
10524 10522 10518 10514 10510 10504 10501 10499 10498 10501 10504 10508 10514 10521 10527 10535 10542 10549 10553 10558 10564 10569 10574 10578 10582 10585 10587 10588 10588 10592 10596 10600 10604 10608 10609 10611 10615 10617 10618 10620 10621 10621 10619 10615 10612 10609 10607 10603 10598 10595 10592 10588 10584 10578
10505 10502 10498 10494 10490 10487 10486 10486 10487 10491 10495 10500 10506 10512 10521 10528 10536 10542 10546 10552 10556 10562 10567 10572 10576 10578 10580 10581 10582 10586 10591 10594 10599 10600 10601 10603 10608 10612 10614 10615 10615 10617 10616 10613 10609 10606 10603 10600 10597 10594 10589 10585 10582 10578
10487 10484 10480 10477 10475 10474 10475 10476 10478 10482 10487 10492 10499 10508 10516 10523 10530 10535 10541 10547 10551 10555 10561 10565 10567 10570 10573 10575 10578 10583 10586 10591 10596 10597 10599 10599 10602 10604 10608 10609 10610 10611 10613 10612 10609 10606 10603 10600 10598 10595 10593 10590 10587 10585
10470 10467 10466 10464 10463 10463 10464 10467 10469 10473 10478 10483 10492 10502 10510 10517 10523 10529 10533 10538 10544 10549 10554 10558 10562 10564 10567 10569 10574 10579 10585 10587 10590 10593 10593 10595 10596 10598 10601 10602 10604 10606 10607 10608 10608 10606 10603 10600 10598 10595 10593 10591 10589 10587
10456 10455 10453 10453 10453 10453 10455 10457 10461 10465 10469 10479 10489 10496 10504 10510 10517 10523 10528 10533 10540 10545 10550 10553 10556 10559 10562 10566 10572 10577 10578 10579 10583 10586 10587 10589 10589 10591 10593 10596 10598 10602 10603 10604 10604 10603 10602 10600 10598 10596 10594 10591 10590 10588
10445 10444 10443 10443 10444 10445 10447 10450 10453 10458 10465 10473 10481 10489 10496 10503 10511 10518 10524 10529 10535 10541 10544 10547 10551 10555 10558 10561 10565 10568 10570 10573 10577 10582 10584 10585 10587 10587 10588 10593 10595 10595 10596 10597 10599 10599 10597 10595 10594 10593 10592 10590 10587 10585
10434 10435 10435 10435 10437 10439 10441 10445 10448 10453 10460 10466 10475 10483 10490 10498 10505 10512 10518 10523 10530 10535 10538 10541 10546 10550 10553 10556 10560 10564 10567 10571 10574 10577 10578 10578 10578 10580 10584 10586 10586 10587 10589 10591 10593 10593 10593 10591 10590 10590 10589 10588 10586 10583
10426 10428 10428 10430 10432 10434 10437 10440 10444 10449 10455 10462 10469 10476 10485 10493 10499 10506 10512 10518 10523 10527 10532 10537 10542 10544 10546 10550 10555 10560 10564 10567 10569 10569 10571 10572 10573 10573 10576 10578 10578 10582 10583 10585 10586 10587 10587 10586 10585 10585 10584 10583 10582 10581
10420 10422 10423 10425 10427 10430 10433 10436 10440 10445 10450 10456 10464 10472 10479 10485 10492 10499 10506 10510 10515 10521 10527 10532 10534 10537 10540 10544 10548 10554 10558 10561 10562 10563 10565 10568 10569 10569 10568 10570 10572 10573 10575 10579 10579 10579 10578 10576 10576 10577 10577 10576 10575 10573
10416 10417 10418 10421 10423 10426 10430 10432 10436 10440 10445 10451 10458 10465 10472 10478 10486 10491 10496 10503 10508 10513 10519 10523 10528 10531 10535 10538 10542 10547 10550 10553 10555 10557 10559 10560 10562 10563 10565 10569 10569 10571 10567 10569 10568 10567 10567 10565 10566 10566 10566 10566 10566 10565
10412 10413 10415 10417 10420 10422 10425 10428 10431 10435 10439 10444 10450 10456 10463 10469 10476 10482 10489 10494 10499 10504 10510 10516 10521 10526 10530 10533 10537 10540 10542 10545 10548 10551 10552 10553 10555 10556 10557 10559 10560 10558 10556 10558 10558 10559 10557 10549 10549 10553 10554 10553 10552 10554
10410 10412 10414 10415 10417 10420 10422 10425 10428 10431 10435 10439 10443 10449 10454 10462 10469 10475 10479 10485 10491 10496 10503 10509 10514 10519 10523 10527 10531 10534 10537 10539 10541 10543 10544 10546 10547 10547 10546 10546 10545 10545 10545 10547 10551 10551 10550 10547 10544 10543 10536 10533 10539 10541
10410 10412 10414 10416 10418 10421 10423 10426 10429 10432 10436 10439 10442 10446 10451 10457 10463 10470 10476 10481 10486 10492 10498 10504 10508 10513 10518 10522 10525 10528 10530 10531 10534 10536 10535 10537 10538 10538 10537 10534 10530 10532 10531 10529 10531 10532 10531 10531 10530 10530 10528 10525 10522 10520
10412 10414 10416 10418 10421 10423 10426 10429 10433 10435 10438 10441 10444 10448 10454 10460 10466 10472 10477 10482 10488 10492 10494 10499 10506 10511 10514 10517 10519 10522 10522 10524 10525 10525 10525 10526 10528 10527 10525 10524 10521 10518 10514 10509 10507 10507 10507 10505 10503 10501 10501 10503 10502 10498
10414 10418 10421 10424 10426 10428 10432 10435 10438 10441 10444 10448 10452 10456 10461 10466 10471 10476 10479 10482 10485 10492 10497 10496 10500 10506 10510 10511 10513 10516 10517 10517 10517 10516 10516 10516 10515 10513 10512 10511 10508 10504 10501 10497 10493 10488 10484 10482 10481 10479 10476 10474 10475 10477
10419 10423 10426 10429 10432 10435 10438 10441 10445 10449 10453 10454 10455 10459 10463 10466 10471 10475 10479 10482 10487 10491 10492 10494 10498 10503 10506 10508 10508 10509 10508 10506 10507 10507 10504 10501 10500 10499 10496 10491 10486 10482 10477 10474 10471 10467 10463 10461 10458 10456 10455 10454 10455 10456
10425 10428 10432 10435 10439 10442 10446 10449 10452 10456 10458 10459 10463 10466 10468 10469 10473 10477 10480 10484 10488 10491 10493 10495 10496 10496 10497 10497 10496 10496 10494 10494 10493 10492 10488 10482 10482 10477 10473 10470 10467 10463 10459 10455 10451 10448 10444 10442 10439 10436 10435 10434 10434 10434
10430 10434 10438 10441 10445 10448 10452 10455 10458 10461 10464 10466 10467 10469 10469 10473 10478 10482 10484 10486 10489 10488 10488 10488 10489 10488 10486 10485 10485 10483 10481 10479 10476 10473 10471 10467 10463 10459 10456 10453 10448 10445 10442 10437 10433 10431 10426 10421 10419 10419 10417 10414 10412 10412
10436 10440 10443 10445 10448 10452 10455 10459 10462 10465 10467 10469 10471 10471 10473 10472 10474 10477 10479 10481 10482 10483 10482 10480 10480 10479 10477 10476 10473 10471 10469 10465 10461 10459 10457 10454 10449 10444 10440 10435 10429 10423 10418 10414 10409 10404 10401 10401 10398 10394 10393 10392 10390 10392
10442 10445 10448 10451 10454 10457 10461 10463 10465 10466 10468 10470 10471 10472 10472 10472 10472 10471 10470 10472 10472 10472 10471 10470 10469 10467 10466 10466 10463 10458 10456 10452 10447 10443 10439 10433 10429 10422 10415 10409 10404 10399 10394 10390 10386 10383 10379 10375 10373 10374 10370 10368 10370 10370